Time,TemperatureF,DewpointF,PressureIn,WindDirection,WindDirectionDegrees,WindSpeedMPH,WindSpeedGustMPH,Humidity,HourlyPrecipIn,Conditions,Clouds,dailyrainin,SoftwareType,DateUTC
2013-07-17 00:01:00,58.0,49.0,-100.00,West,260,4.0,7.0,73,0.00,,,0.00,,2013-07-17 08:01:00,
2013-07-17 00:11:00,58.0,49.0,-100.00,West,260,4.0,7.0,73,0.00,,,0.00,,2013-07-17 08:11:00,
2013-07-17 00:32:00,57.0,49.0,-100.00,WSW,245,4.0,8.0,73,0.00,,,0.00,,2013-07-17 08:32:00,
2013-07-17 00:42:00,57.0,49.0,-100.00,WSW,245,4.0,8.0,73,0.00,,,0.00,,2013-07-17 08:42:00,
2013-07-17 00:52:00,58.0,49.0,-100.00,West,270,6.0,12.0,72,0.00,,,0.00,,2013-07-17 08:52:00,
2013-07-17 01:01:00,58.0,49.0,-100.00,West,270,6.0,12.0,72,0.00,,,0.00,,2013-07-17 09:01:00,
2013-07-17 01:12:00,58.0,49.0,-100.00,West,270,6.0,12.0,72,0.00,,,0.00,,2013-07-17 09:12:00,
2013-07-17 01:22:00,58.0,49.0,-100.00,West,280,8.0,13.0,72,0.00,,,0.00,,2013-07-17 09:22:00,
2013-07-17 01:32:00,58.0,49.0,-100.00,West,280,8.0,13.0,72,0.00,,,0.00,,2013-07-17 09:32:00,
2013-07-17 01:43:00,58.0,49.0,-100.00,West,280,8.0,13.0,72,0.00,,,0.00,,2013-07-17 09:43:00,
2013-07-17 01:52:00,57.0,49.0,-100.00,WNW,285,6.0,12.0,74,0.00,,,0.00,,2013-07-17 09:52:00,
2013-07-17 02:01:00,57.0,49.0,-100.00,WNW,285,6.0,12.0,74,0.00,,,0.00,,2013-07-17 10:01:00,
2013-07-17 02:11:00,57.0,49.0,-100.00,WNW,285,6.0,12.0,74,0.00,,,0.00,,2013-07-17 10:11:00,
2013-07-17 02:22:00,56.0,50.0,-100.00,NW,315,3.0,12.0,80,0.00,,,0.00,,2013-07-17 10:22:00,
2013-07-17 02:32:00,56.0,50.0,-100.00,NW,315,3.0,12.0,80,0.00,,,0.00,,2013-07-17 10:32:00,
2013-07-17 02:43:00,56.0,50.0,-100.00,NW,315,3.0,12.0,80,0.00,,,0.00,,2013-07-17 10:43:00,
2013-07-17 02:52:00,54.0,51.0,-100.00,WNW,300,6.0,11.0,88,0.00,,,0.00,,2013-07-17 10:52:00,
2013-07-17 03:01:00,54.0,51.0,-100.00,WNW,300,6.0,11.0,88,0.00,,,0.00,,2013-07-17 11:01:00,
2013-07-17 03:11:00,54.0,51.0,-100.00,WNW,300,6.0,11.0,88,0.00,,,0.00,,2013-07-17 11:11:00,
2013-07-17 03:32:00,54.0,51.0,-100.00,WNW,295,4.0,13.0,90,0.00,,,0.00,,2013-07-17 11:32:00,
2013-07-17 03:42:00,54.0,51.0,-100.00,WNW,295,4.0,13.0,90,0.00,,,0.00,,2013-07-17 11:42:00,
2013-07-17 04:01:00,53.0,50.0,-100.00,NNW,340,3.0,7.0,90,0.00,,,0.00,,2013-07-17 12:01:00,
2013-07-17 04:12:00,53.0,50.0,-100.00,NNW,340,3.0,7.0,90,0.00,,,0.00,,2013-07-17 12:12:00,
2013-07-17 04:22:00,52.0,49.0,-100.00,North,0,4.0,11.0,89,0.00,,,0.00,,2013-07-17 12:22:00,
2013-07-17 04:32:00,52.0,49.0,-100.00,North,0,4.0,11.0,89,0.00,,,0.00,,2013-07-17 12:32:00,
2013-07-17 04:42:00,52.0,49.0,-100.00,North,0,4.0,11.0,89,0.00,,,0.00,,2013-07-17 12:42:00,
2013-07-17 05:01:00,53.0,47.0,-100.00,NW,315,4.0,9.0,81,0.00,,,0.00,,2013-07-17 13:01:00,
2013-07-17 05:12:00,53.0,47.0,-100.00,NW,315,4.0,9.0,81,0.00,,,0.00,,2013-07-17 13:12:00,
2013-07-17 05:20:00,53.0,47.0,-100.00,WNW,285,5.0,10.0,80,0.00,,,0.00,,2013-07-17 13:20:00,
2013-07-17 05:32:00,53.0,46.0,-100.00,WNW,290,6.0,11.0,78,0.00,,,0.00,,2013-07-17 13:32:00,
2013-07-17 05:43:00,53.0,46.0,-100.00,WNW,290,6.0,11.0,78,0.00,,,0.00,,2013-07-17 13:43:00,
2013-07-17 06:02:00,53.0,47.0,-100.00,WNW,285,5.0,10.0,80,0.00,,,0.00,,2013-07-17 14:02:00,
2013-07-17 06:11:00,53.0,47.0,-100.00,WNW,285,5.0,10.0,80,0.00,,,0.00,,2013-07-17 14:11:00,
2013-07-17 06:43:00,53.0,47.0,-100.00,West,275,5.0,8.0,80,0.00,,,0.00,,2013-07-17 14:43:00,
2013-07-17 07:01:00,53.0,46.0,-100.00,West,275,4.0,9.0,79,0.00,,,0.00,,2013-07-17 15:01:00,
2013-07-17 07:12:00,53.0,46.0,-100.00,West,275,4.0,9.0,79,0.00,,,0.00,,2013-07-17 15:12:00,
2013-07-17 07:32:00,53.0,46.0,-100.00,West,280,6.0,7.0,77,0.00,,,0.00,,2013-07-17 15:32:00,
2013-07-17 07:42:00,53.0,46.0,-100.00,West,280,6.0,7.0,77,0.00,,,0.00,,2013-07-17 15:42:00,
2013-07-17 07:52:00,52.0,46.0,-100.00,WNW,285,4.0,7.0,79,0.00,,,0.00,,2013-07-17 15:52:00,
2013-07-17 08:01:00,52.0,46.0,-100.00,WNW,285,4.0,7.0,79,0.00,,,0.00,,2013-07-17 16:01:00,
2013-07-17 08:11:00,52.0,46.0,-100.00,WNW,285,4.0,7.0,79,0.00,,,0.00,,2013-07-17 16:11:00,
2013-07-17 08:33:00,52.0,45.0,-100.00,West,275,4.0,9.0,77,0.00,,,0.00,,2013-07-17 16:33:00,
2013-07-17 08:42:00,52.0,45.0,-100.00,West,275,4.0,9.0,77,0.00,,,0.00,,2013-07-17 16:42:00,
2013-07-17 08:52:00,52.0,45.0,-100.00,WNW,295,6.0,9.0,75,0.00,,,0.00,,2013-07-17 16:52:00,
2013-07-17 09:01:00,52.0,45.0,-100.00,WNW,295,6.0,9.0,75,0.00,,,0.00,,2013-07-17 17:01:00,
2013-07-17 09:11:00,52.0,45.0,-100.00,WNW,295,6.0,9.0,75,0.00,,,0.00,,2013-07-17 17:11:00,
2013-07-17 09:32:00,53.0,45.0,-100.00,West,270,6.0,9.0,75,0.00,,,0.00,,2013-07-17 17:32:00,
2013-07-17 09:43:00,53.0,45.0,-100.00,West,270,6.0,9.0,75,0.00,,,0.00,,2013-07-17 17:43:00,
2013-07-17 09:52:00,53.0,46.0,-100.00,West,275,4.0,9.0,75,0.00,,,0.00,,2013-07-17 17:52:00,
2013-07-17 10:01:00,53.0,46.0,-100.00,West,275,4.0,9.0,75,0.00,,,0.00,,2013-07-17 18:01:00,
2013-07-17 10:11:00,53.0,46.0,-100.00,West,275,4.0,9.0,75,0.00,,,0.00,,2013-07-17 18:11:00,
2013-07-17 10:32:00,54.0,45.0,-100.00,West,275,2.0,8.0,71,0.00,,,0.00,,2013-07-17 18:32:00,
2013-07-17 10:43:00,54.0,45.0,-100.00,West,275,2.0,8.0,71,0.00,,,0.00,,2013-07-17 18:43:00,
2013-07-17 11:01:00,56.0,44.0,-100.00,West,275,4.0,8.0,64,0.00,,,0.00,,2013-07-17 19:01:00,
2013-07-17 11:11:00,56.0,44.0,-100.00,West,275,4.0,8.0,64,0.00,,,0.00,,2013-07-17 19:11:00,
2013-07-17 11:32:00,56.0,44.0,-100.00,NW,310,4.0,7.0,63,0.00,,,0.00,,2013-07-17 19:32:00,
2013-07-17 11:43:00,56.0,44.0,-100.00,NW,310,4.0,7.0,63,0.00,,,0.00,,2013-07-17 19:43:00,
2013-07-17 11:53:00,57.0,45.0,-100.00,West,270,4.0,8.0,63,0.00,,,0.00,,2013-07-17 19:53:00,
2013-07-17 12:01:00,57.0,45.0,-100.00,West,270,4.0,8.0,63,0.00,,,0.00,,2013-07-17 20:01:00,
2013-07-17 12:11:00,57.0,45.0,-100.00,West,270,4.0,8.0,63,0.00,,,0.00,,2013-07-17 20:11:00,
2013-07-17 12:22:00,58.0,44.0,-100.00,WNW,290,2.0,7.0,59,0.00,,,0.00,,2013-07-17 20:22:00,
2013-07-17 12:33:00,58.0,44.0,-100.00,WNW,290,2.0,7.0,59,0.00,,,0.00,,2013-07-17 20:33:00,
2013-07-17 12:43:00,58.0,44.0,-100.00,WNW,290,2.0,7.0,59,0.00,,,0.00,,2013-07-17 20:43:00,
2013-07-17 12:52:00,60.0,43.0,-100.00,WNW,300,4.0,10.0,52,0.00,,,0.00,,2013-07-17 20:52:00,
2013-07-17 13:01:00,60.0,43.0,-100.00,WNW,300,4.0,10.0,52,0.00,,,0.00,,2013-07-17 21:01:00,
2013-07-17 13:12:00,60.0,43.0,-100.00,WNW,300,4.0,10.0,52,0.00,,,0.00,,2013-07-17 21:12:00,
2013-07-17 13:20:00,62.0,44.0,-100.00,West,275,4.0,9.0,52,0.00,,,0.00,,2013-07-17 21:20:00,
2013-07-17 14:01:00,62.0,44.0,-100.00,West,275,4.0,9.0,52,0.00,,,0.00,,2013-07-17 22:01:00,
2013-07-17 14:11:00,62.0,44.0,-100.00,West,275,4.0,9.0,52,0.00,,,0.00,,2013-07-17 22:11:00,
2013-07-17 14:20:00,61.0,44.0,-100.00,SW,235,2.0,10.0,52,0.00,,,0.00,,2013-07-17 22:20:00,
2013-07-17 14:43:00,60.0,43.0,-100.00,West,275,6.0,9.0,52,0.00,,,0.00,,2013-07-17 22:43:00,
2013-07-17 14:53:00,61.0,44.0,-100.00,SW,235,2.0,10.0,52,0.00,,,0.00,,2013-07-17 22:53:00,
2013-07-17 15:01:00,61.0,44.0,-100.00,SW,235,2.0,10.0,52,0.00,,,0.00,,2013-07-17 23:01:00,
2013-07-17 15:11:00,61.0,44.0,-100.00,SW,235,2.0,10.0,52,0.00,,,0.00,,2013-07-17 23:11:00,
2013-07-17 15:20:00,62.0,44.0,-100.00,NW,315,4.0,9.0,52,0.00,,,0.00,,2013-07-17 23:20:00,
2013-07-17 15:42:00,61.0,44.0,-100.00,West,280,4.0,9.0,52,0.00,,,0.00,,2013-07-17 23:42:00,
2013-07-17 16:01:00,62.0,44.0,-100.00,NW,315,4.0,9.0,52,0.00,,,0.00,,2013-07-18 00:01:00,
2013-07-17 16:11:00,62.0,44.0,-100.00,NW,315,4.0,9.0,52,0.00,,,0.00,,2013-07-18 00:11:00,
2013-07-17 16:33:00,63.0,44.0,-100.00,West,275,4.0,7.0,50,0.00,,,0.00,,2013-07-18 00:33:00,
2013-07-17 16:43:00,63.0,44.0,-100.00,West,275,4.0,7.0,50,0.00,,,0.00,,2013-07-18 00:43:00,
2013-07-17 17:01:00,63.0,44.0,-100.00,North,0,4.0,9.0,50,0.00,,,0.00,,2013-07-18 01:01:00,
2013-07-17 17:11:00,63.0,44.0,-100.00,North,0,4.0,9.0,50,0.00,,,0.00,,2013-07-18 01:11:00,
2013-07-17 17:22:00,63.0,45.0,-100.00,West,270,4.0,9.0,50,0.00,,,0.00,,2013-07-18 01:22:00,
2013-07-17 17:32:00,63.0,45.0,-100.00,West,270,4.0,9.0,50,0.00,,,0.00,,2013-07-18 01:32:00,
2013-07-17 17:42:00,63.0,45.0,-100.00,West,270,4.0,9.0,50,0.00,,,0.00,,2013-07-18 01:42:00,
2013-07-17 17:53:00,62.0,44.0,-100.00,WNW,290,4.0,9.0,52,0.00,,,0.00,,2013-07-18 01:53:00,
2013-07-17 18:01:00,62.0,44.0,-100.00,WNW,290,4.0,9.0,52,0.00,,,0.00,,2013-07-18 02:01:00,
2013-07-17 18:11:00,62.0,44.0,-100.00,WNW,290,4.0,9.0,52,0.00,,,0.00,,2013-07-18 02:11:00,
2013-07-17 18:21:00,61.0,44.0,-100.00,West,275,3.0,7.0,53,0.00,,,0.00,,2013-07-18 02:21:00,
2013-07-17 18:32:00,61.0,44.0,-100.00,West,275,3.0,7.0,53,0.00,,,0.00,,2013-07-18 02:32:00,
2013-07-17 18:42:00,61.0,44.0,-100.00,West,275,3.0,7.0,53,0.00,,,0.00,,2013-07-18 02:42:00,
2013-07-17 18:52:00,61.0,45.0,-100.00,West,270,2.0,6.0,55,0.00,,,0.00,,2013-07-18 02:52:00,
2013-07-17 19:01:00,61.0,45.0,-100.00,West,270,2.0,6.0,55,0.00,,,0.00,,2013-07-18 03:01:00,
2013-07-17 19:11:00,61.0,45.0,-100.00,West,270,2.0,6.0,55,0.00,,,0.00,,2013-07-18 03:11:00,
2013-07-17 19:32:00,60.0,46.0,-100.00,West,265,4.0,8.0,59,0.00,,,0.00,,2013-07-18 03:32:00,
2013-07-17 19:43:00,60.0,46.0,-100.00,West,265,4.0,8.0,59,0.00,,,0.00,,2013-07-18 03:43:00,
2013-07-17 19:52:00,60.0,47.0,-100.00,WNW,290,6.0,11.0,62,0.00,,,0.00,,2013-07-18 03:52:00,
2013-07-17 20:02:00,60.0,47.0,-100.00,WNW,290,6.0,11.0,62,0.00,,,0.00,,2013-07-18 04:02:00,
2013-07-17 20:12:00,60.0,47.0,-100.00,WNW,290,6.0,11.0,62,0.00,,,0.00,,2013-07-18 04:12:00,
2013-07-17 20:32:00,60.0,47.0,-100.00,North,0,3.0,7.0,61,0.00,,,0.00,,2013-07-18 04:32:00,
2013-07-17 20:43:00,60.0,47.0,-100.00,North,0,3.0,7.0,61,0.00,,,0.00,,2013-07-18 04:43:00,
2013-07-17 21:01:00,62.0,46.0,-100.00,WNW,300,3.0,7.0,55,0.00,,,0.00,,2013-07-18 05:01:00,
2013-07-17 21:11:00,62.0,46.0,-100.00,WNW,300,3.0,7.0,55,0.00,,,0.00,,2013-07-18 05:11:00,
2013-07-17 21:20:00,59.0,46.0,-100.00,WNW,285,4.0,6.0,60,0.00,,,0.00,,2013-07-18 05:20:00,
2013-07-17 21:32:00,60.0,46.0,-100.00,WNW,285,2.0,6.0,60,0.00,,,0.00,,2013-07-18 05:32:00,
2013-07-17 21:42:00,60.0,46.0,-100.00,WNW,285,2.0,6.0,60,0.00,,,0.00,,2013-07-18 05:42:00,
2013-07-17 21:52:00,59.0,46.0,-100.00,WNW,285,4.0,6.0,60,0.00,,,0.00,,2013-07-18 05:52:00,
2013-07-17 22:01:00,59.0,46.0,-100.00,WNW,285,4.0,6.0,60,0.00,,,0.00,,2013-07-18 06:01:00,
2013-07-17 22:11:00,59.0,46.0,-100.00,WNW,285,4.0,6.0,60,0.00,,,0.00,,2013-07-18 06:11:00,
2013-07-17 22:20:00,58.0,47.0,-100.00,West,275,3.0,7.0,64,0.00,,,0.00,,2013-07-18 06:20:00,
2013-07-17 22:43:00,59.0,46.0,-100.00,West,260,3.0,7.0,63,0.00,,,0.00,,2013-07-18 06:43:00,
2013-07-17 23:01:00,58.0,47.0,-100.00,West,275,3.0,7.0,64,0.00,,,0.00,,2013-07-18 07:01:00,
2013-07-17 23:11:00,58.0,47.0,-100.00,West,275,3.0,7.0,64,0.00,,,0.00,,2013-07-18 07:11:00,
2013-07-17 23:42:00,58.0,47.0,-100.00,WNW,285,4.0,7.0,66,0.00,,,0.00,,2013-07-18 07:42:00,
2013-07-17 23:52:00,58.0,47.0,-100.00,West,280,3.0,6.0,66,0.00,,,0.00,,2013-07-18 07:52:00,